This is the latest recevied weather packets stored in our database for station/object W7PLC. If no packets are shown the sender has not sent any weather packets the latest 10 day(s).
| Time | Temp. | Humidity | Pressure | Rain* | Wind** | Luminosity | Snow |
|---|---|---|---|---|---|---|---|
| 1777477263 | 12.22° C | 81% | 1024 hPa | 0 mm | - | 256 W/m² | - |
| 1777476960 | 11.67° C | 85% | 1024.1 hPa | 0 mm | - | 217 W/m² | - |
| 1777476658 | 11.11° C | 85% | 1024.2 hPa | 0 mm | - | 216 W/m² | - |
| 1777476354 | 11.11° C | 86% | 1024 hPa | 0 mm | - | 212 W/m² | - |
| 1777476050 | 11.11° C | 86% | 1024 hPa | 0 mm | - | 198 W/m² | - |
| 1777475746 | 10.56° C | 87% | 1024.2 hPa | 0 mm | - | 38 W/m² | - |
| 1777475443 | 10° C | 90% | 1024 hPa | 0 mm | - | 36 W/m² | - |
| 1777475138 | 9.44° C | 90% | 1024.1 hPa | 0 mm | - | 42 W/m² | - |
| 1777474835 | 9.44° C | 90% | 1024.1 hPa | 0 mm | - | 59 W/m² | - |
| 1777474530 | 8.89° C | 91% | 1023.9 hPa | 0 mm | - | 49 W/m² | - |
| 1777474227 | 8.89° C | 92% | 1024 hPa | 0 mm | - | 42 W/m² | - |
| 1777473925 | 8.33° C | 93% | 1024 hPa | 0 mm | - | 50 W/m² | - |
| 1777473622 | 7.78° C | 93% | 1024.1 hPa | 0 mm | - | 46 W/m² | - |
| 1777473318 | 7.78° C | 94% | 1024 hPa | 0 mm | - | 42 W/m² | - |
| 1777473014 | 7.78° C | 94% | 1023.9 hPa | 0 mm | - | 38 W/m² | - |
| 1777472711 | 7.22° C | 95% | 1023.9 hPa | 0 mm | - | 38 W/m² | - |
| 1777472407 | 6.67° C | 95% | 1023.9 hPa | 0 mm | - | 32 W/m² | - |
| 1777472105 | 6.67° C | 95% | 1024 hPa | 0 mm | - | 26 W/m² | - |
| 1777471800 | 6.67° C | 95% | 1023.9 hPa | 0 mm | - | 22 W/m² | - |
| 1777471497 | 6.67° C | 96% | 1023.8 hPa | 0 mm | - | 21 W/m² | - |
| 1777471193 | 6.11° C | 96% | 1023.8 hPa | 0 mm | - | 20 W/m² | - |
| 1777470890 | 6.11° C | 97% | 1023.7 hPa | 0 mm | - | 16 W/m² | - |
| 1777470588 | 6.11° C | 97% | 1023.7 hPa | 0 mm | - | 13 W/m² | - |
| 1777470283 | 5.56° C | 97% | 1023.6 hPa | 0 mm | - | 11 W/m² | - |
| 1777469979 | 5.56° C | 98% | 1024 hPa | 0 mm | - | 10 W/m² | - |
* Rain latest hour (hover to see other rain measurements)
** Current wind speed in m/s (hover to see current wind gust speed)